Find STARLINK-37567

NORAD ID: 70568 Constellation: starlink operational
LEOCIRCULARRETROGRADE

Live Position

Loading 3D Globe...

About STARLINK-37567

Description loading...

Upcoming Passes

Passes for default location (London). Set your location on the main map for personalized predictions.

Altitude History

Loading altitude history...

Two-Line Element Set

1 70568C 26097J 26121.88659722 -.00569020 00000+0 -83199-3 0 1212
2 70568 97.2856 316.5479 0008022 256.7658 25.8996 16.05371131 19
Epoch: May 1, 2026 • Age: 29 hours